Regional Weather Roundup
Issued by NWS

Home | Current Version | Previous Version | Text Only | Print | Product List | Glossary On
Versions: 1 2 3 4 5 6 7 8 9 10 11 12 13 14 15 16 17 18 19 20 21 22 23 24 25 26 27 28 29 30 31 32 33 34 35 36 37 38 39 40 41 42 43 44 45 46 47 48 49 50
000
ASUS43 KMKX 250100
RWRWI

WISCONSIN REGIONAL WEATHER ROUNDUP
NATIONAL WEATHER SERVICE MILWAUKEE/SULLIVAN WI
800 PM CDT FRI OCT 24 2014

NOTE: "FAIR" INDICATES FEW OR NO CLOUDS BELOW 12,000 FEET WITH NO
SIGNIFICANT WEATHER AND/OR OBSTRUCTIONS TO VISIBILITY.

WIZ001-002-006>008-014>016-023>028-250200-
NORTHWEST WISCONSIN

CITY           SKY/WX    TMP DP  RH WIND       PRES   REMARKS
SUPERIOR ARPT  PTCLDY    59  52  76 SW8       29.76S
ASHLAND        PTCLDY    57  52  83 SW9       29.78S
HAYWARD        PTCLDY    54  51  90 S9        29.83S
SIREN          MOCLDY    55  53  92 S5        29.84S
CUMBERLAND     CLOUDY    54  52  94 S7        29.85S FOG
RICE LAKE      CLOUDY    56  54  92 S5        29.87S FOG
CHETEK         CLOUDY    56  55  95 S3        29.86S
LADYSMITH      CLOUDY    57  54  89 SW8       29.87F
EAU CLAIRE     NOT AVBL
MENOMONIE      MOCLDY    56  55  95 S3        29.87S FOG
NEW RICHMOND   CLOUDY    54  53  98 S5        29.87R FOG
OSCEOLA        CLOUDY    54  54 100 S5        29.88R FOG
$$

WIZ003>005-009-010-017-018-250200-
NORTH CENTRAL WISCONSIN

CITY           SKY/WX    TMP DP  RH WIND       PRES   REMARKS
MANITOWISH WTR CLOUDY    55  50  83 SW12G17   29.83S
ARBOR VITAE    CLOUDY    57  51  81 SW7       29.84S
WOODRUFF       CLOUDY    57  51  81 SW7       29.84S
RHINELANDER    CLOUDY    54  47  77 SW9       29.85F
EAGLE RIVER    CLOUDY    55  45  69 SW9       29.82F
LAND O LAKES   CLOUDY    56  47  71 SW7       29.82F
PHILLIPS       CLOUDY    55  50  83 SW7       29.85R
TOMAHAWK       CLOUDY    54  47  78 CALM      29.86F
MEDFORD        CLOUDY    54  50  88 S3        29.86F
MERRILL        CLOUDY    55  49  81 SW6       29.86F
$$

WIZ029-030-035-036-043>047-250200-
CENTRAL WISCONSIN

CITY           SKY/WX    TMP DP  RH WIND       PRES   REMARKS
WAUSAU         CLOUDY    56  49  77 S6        29.86F
MOSINEE        CLOUDY    54  52  94 S6        29.89S
MARSHFIELD     CLOUDY    57  53  86 SW7       29.87F
STEVENS POINT  CLOUDY    55  49  81 S7        29.89S
WAUPACA        CLOUDY    55  52  92 CALM      29.90S
WAUTOMA        NOT AVBL
WISC RAPIDS    CLOUDY    57  51  80 S8        29.90F
CAMP DOUGLAS   NOT AVBL
$$

WIZ011>013-019>022-031-037>040-048>050-250200-
NORTHEAST WISCONSIN

CITY           SKY/WX    TMP DP  RH WIND       PRES   REMARKS
ANTIGO         CLOUDY    52  49  92 S5        29.87F
SHAWANO        MOCLDY    53  49  87 CALM      29.89S
OCONTO         CLOUDY    49  49 100 S5        29.89S
STURGEON BAY   CLOUDY    48  46  93 S9        29.90S VSB 1/4
GREEN BAY      PTCLDY    51  49  92 S5        29.89F
MANITOWOC      NOT AVBL
APPLETON       CLOUDY    54  50  87 S9        29.90S
CLINTONVILLE   CLOUDY    50  48  93 CALM      29.89S
OSHKOSH        CLOUDY    55  51  86 S9        29.90F
$$

WIZ032>034-041-042-053>061-250200-
SOUTHWEST WISCONSIN

CITY           SKY/WX    TMP DP  RH WIND       PRES   REMARKS
LA CROSSE      CLOUDY    60  56  86 S8        29.89S
SPARTA         CLOUDY    59  56  91 CALM      29.90F
VIROQUA        CLOUDY    57  57 100 SW5       29.91F
BOSCOBEL       CLOUDY    59  57  93 SW3       29.91F FOG
PRAIRIE DU CHI CLOUDY    60  56  87 CALM      29.91F
PLATTEVILLE    CLOUDY    59  55  85 CALM      29.94R
$$

WIZ056-057-062-063-064-067-068-250200-
SOUTH CENTRAL WISCONSIN

CITY           SKY/WX    TMP DP  RH WIND       PRES   REMARKS
REEDSBURG      CLOUDY    58  53  83 SW8       29.91S
BARABOO/DELLS  CLOUDY    59  50  73 SW10      29.91S
LONE ROCK      NOT AVBL
MINERAL POINT  CLOUDY    59  54  82 CALM      29.93S
MADISON        CLOUDY    58  50  75 CALM      29.93S
MIDDLETON      CLOUDY    60  49  68 CALM      29.93S
WATERTOWN      CLOUDY    55  52  89 CALM      29.93S
MONROE         CLOUDY    57  52  82 SW5       29.93S
JANESVILLE     CLOUDY    57  50  77 CALM      29.93R
$$

WIZ051-052-058>065-066-070>072-250200-
SOUTHEAST WISCONSIN

CITY           SKY/WX    TMP DP  RH WIND       PRES   REMARKS
MILWAUKEE      CLOUDY    54  49  83 S6        29.94S HAZE
WAUKESHA       CLOUDY    55  48  76 CALM      29.95S
MILWAUKEE/TIMM NOT AVBL
RACINE         CLOUDY    53  50  89 S5        29.95F FOG
BURLINGTON     MOCLDY    50  49  95 CALM      29.93F
KENOSHA        CLOUDY    53  50  89 S3        29.94F FOG
FOND DU LAC    CLOUDY    56  49  77 S7        29.92S
SHEBOYGAN      CLOUDY    51  49  92 S6        29.92F
WEST BEND      CLOUDY    55  45  67 SW3       29.93S
JUNEAU         CLOUDY    54  50  86 SE5       29.94S
$$

LSZ147-162-250200-
LAKE SUPERIOR

STATION/POSITION TIME  TEMP    WIND        PRES    WAVE
                       AIR SEA DIR/SP/G            HT/PER
                 (UTC) (F)     (DEG/KT/KT) (MB)    (FT/S)
W MID LAKE BUOY  2350   53 47  210/ 12/ 14 1005.9F   0
DEVILS ISLAND    0000   60     210/ 14/ 15 1006.7R
PORT WING        0040   60     210/ 10/ 15 1007.8R
SAXON HARBOR     0000   62     200/ 11/ 17 1007.8
$$

LMZ867-665-643>646-250200-
LAKE MICHIGAN

STATION/POSITION TIME  TEMP    WIND        PRES    WAVE
                       AIR SEA DIR/SP/G            HT/PER
                 (UTC) (F)     (DEG/KT/KT) (MB)    (FT/S)
CHAMBERS ISLAND  0000   51     160/  4/  8 1012.2F
N MID LAKE BUOY  2350   49 51  200/ 16/ 19 1012.7F   3/ 4
NORTHPORT PIER   0000   50     170/  7/ 11 1012.2F
SISTER BAY       0028          170/ 11/ 13   N/A
ALGOMA LAKESHORE 0041          210/ 20/ 23   N/A
KEWAUNEE LAKESHO 0000   49     190/ 11/ 13 1012.4S
SHEBOYGAN LAKESH 0000   51 51  180/  9/ 10 1014.1R
PORT WASHINGTON  0000   53     180/  6/  8 1014.2S
ATWATER BUOY     0000   52     180/ 10/ 12 1014.8R
MILWAUKEE LAKESH 0000   52     150/ 11/ 12   N/A
S MID LAKE BUOY  2350   54 54  160/  6/  6 1014.5F   0
KENOSHA   LAKESH 0000   54     170/  6/  7 1013.9F
$$

TC  - TEMPERATURE IN CELSIUS
VSB - VISIBILITY IN STATUTE MILES
WCI - WIND CHILL INDEX
HX  - HEAT INDEX




USA.gov is the U.S. government's official web portal to all federal, state and local government web resources and services.